Вернуться в каталог

COSMOS 568

АктивенВоенныеLEO
NORAD 6679·PAYLOAD·🇷🇺 Russia

Запущен Jun 8, 1973 с Plesetsk Cosmodrome

Loading…

Ближайшие Пролёты (ближайшие 24 часа)

TLE

СвежийSource: Space-Track

Эпоха: Sep 14, 2026, 15:18 UTC

1  6679U 73037E   26257.63787756 -.00000001  00000-0  92681-4 0  9991
2  6679  74.0169 122.0678 0067949 283.8121 104.1391 12.58955235448025

Отслеживайте COSMOS 568 в реальном времени с AllMySat

Download on the App Store